CZ-3B DEB, 40189

Orbit data source: Space-Track

CZ-3B DEB, 40189 is space debris in HEO originally from a launch on Mon, 19 Dec 2011 UTC launched from the Xichang Space Center, China (XSC). Debris objects in space refer to the collection of defunct objects orbiting the Earth. Examples of debris include non-operational satellites, rocket bodies, and fragments generated from explosions, collisions, or faulty payload assembly.

Loading next visibility...
Identifier
40189, 2011-077N
Orbit
HEO
Country
Flag of CNCN / PRC
Related business
Manufacturer
CALT
Mission
Spacecraft
Bus & Motor
Unknown
Mass
Unknown
Launch date (UTC)
2011-12-19 (14 years ago)
Launch vehicle
Unknown
Launch site
Xichang Space Center, China (XSC)
Object type
Payload
Rocket body
Debris
Shape & HBR
Unknown shape, 0.4 m
Radar Cross Section
Large (>1 m²)

Expand to show TLE details & history
Last TLE update: 1 day ago

TLE from 1 day ago
0 CZ-3B DEB
1 40189U 11077N   26035.09308675  .00000071  00000-0  69517-2 0  9990
2 40189  26.5350  52.0154 7374439 294.2669   8.0483  1.90436379 91798
Epoch: 2026-02-04T02:14Z
TLE epoch observation values (Epoch: 2026-02-04T02:14:02.695Z)
Latitude
-0.00093°
Longitude
-115.64744°
Altitude
3,240.139 km
Speed
8.269 km/s
True Right ascension
03h 28m 30s
True Declination
0° 00' 03"
Sunlit
Object was in daylight at epoch
Visualization orbit readout
Latitude
Unknown
Longitude
Unknown
Altitude
Unknown
Speed
Unknown
Apparent Right ascension
Unknown
Apparent Declination
Unknown
Sunlit
N/A
Visualization observer readout
Local Sidereal Time
04:37:36
Azimuth
Unknown
Elevation
Unknown
Doppler factor
Unknown
Orbital elements
Apogee altitude
41,397.208 km
Perigee altitude
841.497 km
Semi-major axis
27,497.489 km
Eccentricity
0.73744
Inclination
26.535°
RAAN
52.0154°
Arg. of periapsis
294.2669°
True anomaly
64.70661°
Mean anomaly
8.0483°
Eccentric anomaly
27.66831°
Mean motion
0.476 °/min
Orbital period
756.31 mins
BSTAR
0.0069517
Loading maneuver chart data...
Computing Atmospheric mass density...
Loading historical data...
Loading historical data...
Loading historical data...
Loading historical data...
Loading historical data...
Loading historical data...
Loading historical data...

Documentation

Showing up to 5 results
|